[[{"header":{"parameterUnit":"m.s-1","parameterCategory":1,"la1":30.2991,"la2":30.254,"lo1":-89.0895,"lo2":-89.0444,"dy":0.0017,"dx":0.0017,"nx":28,"ny":28,"refTime":"2026-02-10T09:00:00:Z","depth":0,"parameterNumber":2,"parameterNumberName":"U-component_of_WINDS"},"data":[0,0,0,0,0,0,0,0,0,0,0,0,0,0,0,0,0,0,0,0,0,0,0,0,0,0,0,0,0,0,0,0,0,0,0,0,0,0,0,0,0,0,0,0,0,0,0,0,0,0,0,0,0,0,0,0,0,0,-1.4757,-1.4757,0,-1.4791,-1.4791,-1.4792,-1.4778,-1.4777,-1.4776,-1.4775,-1.4809,-1.481,-1.4812,0,0,0,0,0,0,0,0,0,0,0,0,0,-1.4678,-1.4679,-1.4757,-1.4757,-1.4758,-1.4791,-1.4791,-1.4792,-1.4778,-1.4777,-1.4776,-1.4775,-1.4808,-1.481,-1.4812,0,0,0,0,0,0,0,0,0,0,0,0,0,-1.4712,-1.468,-1.4757,-1.4755,-1.4755,-1.4791,-1.4791,-1.4792,-1.4778,-1.4777,-1.4776,-1.4774,-1.4807,-1.481,-1.4812,-1.4852,0,0,-1.482,-1.4821,0,0,0,0,0,0,0,0,-1.471,-1.4715,-1.4754,-1.4755,-1.4755,-1.4779,-1.4776,-1.4812,-1.4778,-1.4769,-1.4775,-1.4774,-1.48,-1.4803,-1.4812,-1.4853,-1.4855,-1.482,-1.4821,-1.4822,-1.4823,0,0,0,0,0,0,0,-1.4708,-1.4713,-1.477,-1.4755,-1.4755,-1.4752,-1.4755,-1.4783,-1.4791,-1.477,-1.4769,-1.4773,-1.4799,-1.4809,-1.4812,-1.4855,-1.482,-1.4822,-1.4824,-1.4825,-1.4931,-1.4933,0,0,0,0,0,0,-1.4706,-1.4711,-1.4769,-1.4771,-1.4729,-1.4754,-1.4758,-1.4772,-1.479,-1.4792,-1.4774,-1.4772,-1.4806,-1.4809,-1.4813,-1.4861,-1.4822,-1.4825,-1.4826,-1.493,-1.4932,-1.4933,0,0,0,0,0,0,-1.4704,-1.4711,-1.4768,-1.4741,-1.4748,-1.4757,-1.4773,-1.4774,-1.4784,-1.4794,-1.4795,-1.4783,-1.4805,-1.481,-1.4842,-1.4862,-1.4826,-1.4828,-1.4928,-1.493,-1.4932,-1.4956,0,0,0,0,0,0,-1.4702,-1.471,-1.4726,-1.4742,-1.475,-1.4797,-1.4774,-1.4775,-1.4788,-1.4786,-1.4802,-1.4804,-1.4804,-1.4839,-1.4845,-1.4864,-1.483,-1.4927,-1.4929,-1.4932,-1.4953,-1.4958,-1.4962,0,0,0,0,0,-1.4699,-1.473,-1.4726,-1.4733,-1.4769,-1.4798,-1.4802,-1.4803,-1.479,-1.4805,-1.4812,-1.4803,-1.4859,-1.4842,-1.4849,-1.4869,-1.4925,-1.4929,-1.4931,-1.4951,-1.4957,-1.4962,0,0,0,0,0,0,-1.4715,-1.4732,-1.4728,-1.4766,-1.4781,-1.4795,-1.4814,-1.4809,-1.4828,-1.4825,-1.4825,-1.4828,-1.4862,-1.4869,-1.485,-1.4909,-1.489,-1.4895,-1.4903,-1.4909,-1.4913,-1.491,-1.4832,0,0,0,0,0,-1.4724,-1.4746,-1.4759,-1.4791,-1.4799,-1.4806,-1.4818,-1.4818,-1.4833,-1.4838,-1.4847,-1.4862,-1.4883,-1.4896,-1.4916,-1.4955,-1.4958,-1.4972,-1.4977,-1.4981,-1.4984,-1.5005,-1.5011,-1.4943,-1.4943,-1.4943,0,0,-1.474,-1.4752,-1.4766,-1.4795,-1.4806,-1.4829,-1.4811,-1.4836,-1.4852,-1.4842,-1.4873,-1.4881,-1.4897,-1.4933,-1.4949,-1.494,-1.5004,-1.4985,-1.4987,-1.4989,-1.5009,-1.5015,-1.5021,-1.4945,-1.4945,-1.4944,0,0,-1.4782,-1.4794,-1.4821,-1.4834,-1.4851,-1.4856,-1.4863,-1.4879,-1.4883,-1.4915,-1.4908,-1.4928,-1.4964,-1.4975,-1.4986,-1.5034,-1.5026,-1.504,-1.5064,-1.5084,-1.509,-1.5095,-1.5111,-1.5117,-1.5044,-1.5044,-1.5044,0,-1.48,-1.4834,-1.4836,-1.4862,-1.4875,-1.4868,-1.4896,-1.4907,-1.493,-1.4939,-1.4929,-1.4974,-1.4984,-1.5023,-1.5035,-1.5044,-1.5051,-1.5038,-1.5089,-1.5094,-1.5098,-1.5114,-1.512,-1.5046,-1.5046,-1.5045,-1.5045,0,-1.4856,-1.488,-1.49,-1.4923,-1.4939,-1.4965,-1.4971,-1.4986,-1.4985,-1.499,-1.5023,-1.5035,-1.5057,-1.5067,-1.5065,-1.5105,-1.5099,-1.5089,-1.507,-1.5106,-1.5121,-1.5127,-1.5048,-1.5047,-1.5047,-1.5046,0,0,-1.4907,-1.4932,-1.4939,-1.495,-1.497,-1.4988,-1.5015,-1.5037,-1.505,-1.5067,-1.5088,-1.512,-1.5111,-1.5123,-1.5123,-1.5141,-1.5178,-1.5129,-1.513,-1.5137,-1.5222,-1.5228,-1.5235,-1.5174,-1.5175,-1.5176,-1.522,0,-1.4949,-1.4996,-1.4999,-1.5041,-1.5064,-1.5058,-1.5081,-1.5096,-1.5102,-1.5121,-1.5128,-1.515,-1.5137,-1.5145,-1.5162,-1.517,-1.5195,-1.5167,-1.5193,-1.5194,-1.5188,-1.5243,-1.5249,-1.529,-1.5226,-1.5227,-1.5228,0,-1.5005,-1.5024,-1.5069,-1.5086,-1.5095,-1.5116,-1.5137,-1.5156,-1.5173,-1.5176,-1.519,-1.5188,-1.5215,-1.5196,-1.5233,-1.5214,-1.5225,-1.5231,-1.5232,-1.5233,-1.5212,-1.5244,-1.5303,-1.5309,-1.5237,-1.5236,-1.5235,0,-1.5036,-1.5074,-1.5105,-1.5115,-1.5136,-1.515,-1.516,-1.5175,-1.5189,-1.5207,-1.5216,-1.5237,-1.5249,-1.5265,-1.5268,-1.5255,-1.5305,-1.5287,-1.5308,-1.5307,-1.5317,-1.5316,-1.5377,-1.5327,-1.5326,-1.5326,-1.5326,0,-1.5083,-1.511,-1.512,-1.5139,-1.517,-1.5173,-1.5203,-1.5211,-1.5225,-1.5246,-1.5243,-1.5262,-1.5266,-1.5286,-1.5289,-1.5319,-1.5324,-1.5327,-1.5327,-1.5326,-1.5326,-1.5333,-1.5329,-1.5328,-1.5328,-1.5327,-1.5327,0,-1.5122,-1.513,-1.5164,-1.5182,-1.5187,-1.5209,-1.5224,-1.5242,-1.5249,-1.5275,-1.5281,-1.5291,-1.5314,-1.532,-1.5348,-1.535,-1.5385,-1.5383,-1.5379,-1.5378,-1.5399,-1.5396,-1.5465,-1.5474,-1.5419,-1.5419,-1.542,0,-1.5151,-1.5172,-1.5192,-1.5206,-1.5217,-1.5239,-1.5253,-1.5258,-1.5273,-1.5294,-1.5309,-1.5333,-1.5351,-1.5389,-1.5398,-1.542,-1.5417,-1.544,-1.542,-1.5419,-1.5416,-1.5415,-1.5416,-1.5443,-1.5444,-1.5444,-1.5445,0,-1.52,-1.5203,-1.5224,-1.5246,-1.5264,-1.5281,-1.5298,-1.531,-1.5317,-1.5333,-1.5358,-1.5373,-1.5402,-1.5424,-1.5446,-1.5455,-1.5451,-1.5452,-1.5457,-1.5456,-1.5453,-1.5454,-1.5388,-1.5449,-1.5449,-1.5449,-1.5448,-1.5448,-1.5234,-1.5253,-1.527,-1.5294,-1.5307,-1.5323,-1.5341,-1.5351,-1.5372,-1.5396,-1.5398,-1.5424,-1.544,-1.5469,-1.548,-1.55,-1.5493,-1.5502,-1.5503,-1.5505,-1.5507,-1.5451,-1.5504,-1.5504,-1.5504,-1.5504,-1.5504,0,-1.5282,-1.5294,-1.5315,-1.534,-1.5358,-1.5354,-1.5373,-1.5388,-1.5412,-1.5428,-1.5447,-1.5475,-1.5498,-1.5509,-1.5532,-1.5546,-1.5544,-1.5551,-1.5549,-1.5552,-1.5512,-1.5504,-1.5552,-1.5552,-1.5552,-1.5552,-1.5552,-1.5552,-1.5309,-1.534,-1.5346,-1.5383,-1.5395,-1.5421,-1.5432,-1.5447,-1.546,-1.5492,-1.5511,-1.5519,-1.5533,-1.5556,-1.5577,-1.558,-1.5587,-1.5595,-1.5597,-1.5559,-1.5554,-1.555,-1.5542,-1.5597,-1.5597,-1.5635,-1.5635,-1.5635]},{"header":{"parameterUnit":"m.s-1","parameterCategory":1,"la1":30.2991,"la2":30.254,"lo1":-89.0895,"lo2":-89.0444,"dy":0.0017,"dx":0.0017,"nx":28,"ny":28,"refTime":"2026-02-10T09:00:00:Z","depth":0,"parameterNumber":3,"parameterNumberName":"V-component_of_WINDS"},"data":[0,0,0,0,0,0,0,0,0,0,0,0,0,0,0,0,0,0,0,0,0,0,0,0,0,0,0,0,0,0,0,0,0,0,0,0,0,0,0,0,0,0,0,0,0,0,0,0,0,0,0,0,0,0,0,0,0,0,0.7913,0.7913,0,0.7878,0.7878,0.7877,0.7914,0.7915,0.7917,0.7918,0.7878,0.7876,0.7874,0,0,0,0,0,0,0,0,0,0,0,0,0,0.8011,0.8009,0.7913,0.7913,0.7912,0.7878,0.7878,0.7877,0.7913,0.7915,0.7917,0.7918,0.7879,0.7876,0.7873,0,0,0,0,0,0,0,0,0,0,0,0,0,0.7971,0.8008,0.7913,0.7926,0.7927,0.7878,0.7878,0.7877,0.7913,0.7915,0.7917,0.7919,0.788,0.7877,0.7873,0.7808,0,0,0.7862,0.7861,0,0,0,0,0,0,0,0,0.7973,0.7967,0.7925,0.7926,0.7926,0.7903,0.7898,0.7854,0.7913,0.7918,0.7918,0.792,0.7884,0.7881,0.7869,0.7806,0.7805,0.7862,0.786,0.7858,0.7857,0,0,0,0,0,0,0,0.7976,0.7969,0.7899,0.7924,0.7925,0.7934,0.793,0.7889,0.789,0.7918,0.7921,0.7916,0.7885,0.7873,0.7869,0.7804,0.7862,0.7859,0.7857,0.7855,0.769,0.7688,0,0,0,0,0,0,0.7978,0.7971,0.79,0.7898,0.7956,0.793,0.7927,0.7908,0.789,0.789,0.7914,0.7918,0.7878,0.7873,0.7867,0.7793,0.7858,0.7855,0.7853,0.7693,0.769,0.7688,0,0,0,0,0,0,0.7979,0.7971,0.7902,0.7935,0.7927,0.7926,0.7905,0.7906,0.7894,0.7888,0.7888,0.7902,0.7879,0.7872,0.7824,0.7792,0.7853,0.785,0.7695,0.7692,0.7689,0.7642,0,0,0,0,0,0,0.7982,0.7971,0.7947,0.7935,0.7925,0.7859,0.7903,0.7904,0.7888,0.7892,0.7876,0.7875,0.788,0.7829,0.782,0.7788,0.7847,0.7698,0.7694,0.769,0.7647,0.7638,0.763,0,0,0,0,0,0.7985,0.7933,0.7945,0.7937,0.7895,0.7857,0.7852,0.786,0.7885,0.7861,0.7857,0.7875,0.7797,0.7824,0.7814,0.7781,0.77,0.7695,0.769,0.765,0.7639,0.763,0,0,0,0,0,0,0.7939,0.7932,0.7945,0.7888,0.7873,0.7863,0.7832,0.7848,0.7825,0.783,0.784,0.7836,0.7785,0.7778,0.7808,0.7719,0.7753,0.7745,0.7726,0.7715,0.7707,0.771,0.7844,0,0,0,0,0,0.7923,0.7894,0.7888,0.7838,0.7831,0.7833,0.7817,0.7825,0.7809,0.7803,0.7796,0.778,0.7752,0.7733,0.7707,0.7646,0.7644,0.7618,0.761,0.7603,0.7597,0.7567,0.7557,0.7671,0.7671,0.7671,0,0,0.7888,0.788,0.7861,0.7829,0.7819,0.7789,0.7827,0.7792,0.777,0.7797,0.7752,0.7747,0.7729,0.7675,0.7651,0.7668,0.7565,0.7597,0.7592,0.7589,0.7561,0.755,0.7541,0.7668,0.7668,0.7669,0,0,0.7809,0.78,0.7759,0.7749,0.7733,0.7736,0.7726,0.7715,0.7713,0.7668,0.7689,0.7662,0.7613,0.7601,0.7588,0.7509,0.7525,0.75,0.7457,0.7428,0.7419,0.7411,0.7384,0.7375,0.7493,0.7493,0.7493,0,0.7767,0.7723,0.7735,0.7701,0.7687,0.7712,0.7671,0.766,0.7636,0.7626,0.7646,0.7587,0.7577,0.7522,0.7503,0.7491,0.7481,0.7502,0.7419,0.7411,0.7404,0.7379,0.7369,0.749,0.7491,0.7491,0.7491,0,0.7674,0.7643,0.7612,0.7591,0.7574,0.7536,0.7542,0.7523,0.7533,0.7534,0.7489,0.7479,0.7452,0.744,0.7448,0.7387,0.7398,0.7418,0.7452,0.739,0.7367,0.7357,0.7486,0.7487,0.7488,0.7489,0,0,0.7563,0.7553,0.7541,0.7534,0.752,0.7496,0.746,0.7437,0.7421,0.7404,0.7375,0.7335,0.7355,0.734,0.7348,0.7322,0.7263,0.7346,0.7346,0.7332,0.7198,0.7184,0.7172,0.7274,0.7272,0.7271,0.72,0,0.7486,0.7426,0.7437,0.7378,0.7351,0.7376,0.7345,0.7334,0.7334,0.7311,0.731,0.7283,0.7309,0.7302,0.7277,0.7275,0.7237,0.7281,0.7248,0.7247,0.7253,0.716,0.7144,0.7078,0.7191,0.7189,0.7188,0,0.7388,0.7371,0.731,0.7304,0.7293,0.7265,0.7246,0.7223,0.7211,0.7213,0.7199,0.7213,0.7178,0.7212,0.7165,0.7195,0.7182,0.718,0.7177,0.7175,0.7214,0.7157,0.7056,0.7047,0.7173,0.7175,0.7176,0,0.7316,0.7278,0.7237,0.7229,0.7221,0.7201,0.7196,0.7187,0.7173,0.7156,0.7147,0.7125,0.7113,0.7096,0.7104,0.7128,0.7056,0.7091,0.7058,0.7057,0.7041,0.7042,0.6939,0.7031,0.7031,0.7031,0.7031,0,0.723,0.7192,0.7206,0.718,0.7139,0.7153,0.7112,0.711,0.7102,0.7077,0.7097,0.7073,0.7084,0.7061,0.7067,0.7028,0.7022,0.7023,0.7026,0.7022,0.7023,0.7015,0.702,0.7029,0.7029,0.703,0.703,0,0.7143,0.715,0.7108,0.7105,0.7103,0.7073,0.707,0.7047,0.705,0.7019,0.7013,0.7016,0.6991,0.6997,0.6968,0.6972,0.6925,0.6932,0.6929,0.6931,0.6899,0.6902,0.6787,0.6774,0.6873,0.6872,0.6872,0,0.7088,0.706,0.7055,0.7041,0.7035,0.7012,0.6999,0.7011,0.6997,0.6983,0.6962,0.6939,0.6921,0.688,0.688,0.6859,0.6867,0.6828,0.6863,0.6862,0.6868,0.6871,0.6869,0.6821,0.682,0.6819,0.6818,0,0.699,0.6996,0.6977,0.696,0.6944,0.6931,0.6919,0.6906,0.6918,0.6901,0.6877,0.6863,0.6836,0.6813,0.6795,0.679,0.6806,0.6807,0.6799,0.6796,0.6796,0.6798,0.6912,0.681,0.6811,0.6811,0.6812,0.6812,0.6918,0.6896,0.689,0.6869,0.6862,0.6852,0.6831,0.6833,0.6813,0.6793,0.6802,0.6774,0.6766,0.6743,0.6736,0.6715,0.6729,0.6716,0.6713,0.671,0.6708,0.6799,0.6711,0.6711,0.6711,0.6712,0.6712,0,0.6823,0.6822,0.6802,0.6787,0.6771,0.679,0.6779,0.6764,0.674,0.6731,0.6715,0.6688,0.6667,0.6666,0.6647,0.663,0.6637,0.6625,0.6627,0.6626,0.6694,0.6705,0.6619,0.6619,0.6619,0.6619,0.6619,0.6619,0.6772,0.6737,0.6742,0.6704,0.6702,0.6677,0.6669,0.666,0.6654,0.6624,0.6607,0.6608,0.6603,0.6584,0.6566,0.6566,0.6559,0.6544,0.6547,0.6611,0.662,0.6629,0.6639,0.6541,0.6541,0.648,0.648,0.6479]}]]